Regional Weather Roundup
Issued by NWS State College, PA

Home | Current Version | Previous Version | Graphics & Text | Print | Product List | Glossary Off
Versions: 1 2 3 4 5 6 7 8 9 10 11 12 13 14 15 16 17 18 19 20 21 22 23 24 25 26 27 28 29 30 31 32 33 34 35 36 37 38 39 40 41 42 43 44 45 46 47 48 49 50

000
ASUS41 KCTP 251610
RWRCTP

REGIONAL WEATHER ROUNDUP
NATIONAL WEATHER SERVICE STATE COLLEGE PA
1200 PM EDT FRI JUL 25 2014

Note: "fair" indicates few or no clouds below 12,000 feet with no
significant weather and/or obstructions to visibility.

* = STATION THAT DOES NOT REPORT PRECIPITATION /E.G. RAIN...SNOW...ETC/
    THUNDER OR FOG.

PAZ002>004-007>009-013>016-020>023-029>032-251700-
WESTERN PENNSYLVANIA

CITY           SKY/WX    TMP DP  RH WIND       PRES   REMARKS
ERIE           MOSUNNY   72  49  44 W10       30.09F
MEADVILLE      SUNNY     70  50  49 NW6       30.11F
FRANKLIN*      SUNNY     68  48  49 NW5       30.13F
NEW CASTLE       N/A     70  50  49 CALM      30.12F
BEAVER COUNTY  SUNNY     70  48  46 CALM      30.12F
BUTLER*        SUNNY     70  52  52 CALM      30.13F
PITTSBURGH INT MOSUNNY   70  47  43 W3        30.11F
PITTSBURGH     SUNNY     70  47  43 CALM      30.10F
INDIANA*       SUNNY     70  52  52 CALM      30.15F
LATROBE        MOSUNNY   72  55  56 W12       30.13R
WASHINGTON CO* SUNNY     72  54  53 NW8       30.12F
$$

PAZ004>006-010>012-017>019-024>028-033>037-041-042-045-046-049>053-251700-
CENTRAL PENNSYLVANIA

CITY           SKY/WX    TMP DP  RH WIND       PRES   REMARKS
BRADFORD       SUNNY     66  42  41 S6        30.12S
DUBOIS         SUNNY     69  48  47 SW8       30.12S
CLEARFIELD     SUNNY     69  47  45 SW6       30.12S
JOHNSTOWN      MOSUNNY   67  52  58 VRB7      30.13R
ALTOONA        SUNNY     70  51  51 MISG      30.12R
STATE COLLEGE  SUNNY     68  48  49 CALM      30.09F
WILLIAMSPORT   SUNNY     72  52  49 VRB3      30.07S
SELINSGROVE    SUNNY     73  51  46 CALM      30.08F
FT INDIANTOWN  SUNNY     75  52  45 E8        30.06F
CAPITAL CITY   SUNNY     72  50  45 SE3       30.06F
HARRISBURG     MOSUNNY   75  53  46 W3        30.05F
YORK           SUNNY     74  50  42 NW8       30.07F
$$

PAZ038>040-043-044-047-048-054-055-060>062-067>071-251700-
EASTERN PENNSYLVANIA

CITY           SKY/WX    TMP DP  RH WIND       PRES   REMARKS
SCRANTON       SUNNY     73  52  47 CALM      30.06F
MOUNT POCONO   SUNNY     70  49  47 VRB5      30.08F
ALLENTOWN      SUNNY     76  53  44 VRB3      30.04F
QUAKERTOWN*    SUNNY     73  57  56 N3        30.05F
READING        MOSUNNY   76  55  48 VRB3      30.04F
LANCASTER      SUNNY     72  53  51 CALM      30.06F
COATESVILLE    SUNNY     73  54  49 E3        30.07F
POTTSTOWN      SUNNY     73  54  51 VRB3      30.05F
BLUE BELL      SUNNY     79  59  50 W3        30.03F
DOYLESTOWN     SUNNY     73  57  57 S5        30.03F
WILLOW GROVE   NOT AVBL
NORTH PHILA    SUNNY     79  55  43 VRB3      30.04F
PHILADELPHIA   MOSUNNY   78  55  44 W7        30.03F
$$


USA.gov is the U.S. government's official web portal to all federal, state and local government web resources and services.